Location: Sternwarte ZA, Rosenfeld-Brittheim
(48.2889°N, 8.6789°E)
Time: 08:49:31
(UTC+02:00)

ISS - Pass Details

Date: 27 October 2020
Orbit: 418 x 419 km, 51.6° (Epoch: 19 October)

Event Time Altitude Azimuth Distance (km) Brightness Sun altitude
Exits shadow 04:21:45 19° 111° (ESE) 1,078 -1.1 -27.4°
Drops below altitude 10° 04:23:18 10° 88° (E) 1,497 0.0 -27.1°
Sets 04:25:41 0° 72° (ENE) 2,365 1.4 -26.7°
